Wetbulb
55.13 55.08 54.75 54.95 54.96 54.48 54.38 54.41 54.49 54.57 54.57 54.99 55.35 55.51 55.62 55.86 55.94 56.44 54.09 56.17 57.51 58.56 58.43 53.56 52.69 52.73 53.16 52.88 55.21 57.07 51.93 49.66 50.75 51.07 52.34 55.67 54.22 57.22 58.60 56.63 58.00 58.71 58.76 60.61 61.16
55.13 55.26 55.42 55.31 55.14 54.83 54.57 54.57 54.41 54.07 54.01 54.56 54.76 55.13 55.20 55.74 55.64 53.87 58.86 58.48 60.10 59.38 53.84 50.96 49.62 51.19 50.37 51.06 52.51 52.73 50.40 50.71 54.32 54.70 53.81 55.43 55.77 55.23 54.18 55.28 55.84 57.58 60.23 60.22 60.72
54.94 54.99 55.13 55.14 55.09 55.01 54.79 54.69 54.51 54.24 53.96 54.19 54.21 54.61 55.15 56.21 53.80 51.83 60.78 59.74 60.18 60.39 56.17 53.87 52.04 50.61 48.30 50.69 50.85 51.12 49.06 52.69 53.18 54.56 55.55 54.83 54.94 56.39 53.13 52.08 55.57 55.93 56.79 58.31 58.41
54.62 54.85 54.98 54.62 54.39 54.43 54.39 54.79 54.74 54.20 53.83 53.58 53.39 54.45 54.96 56.07 45.53 56.42 62.47 61.36 61.56 57.84 55.47 53.20 50.36 47.64 47.08 46.65 50.62 47.16 50.67 51.60 52.30 53.90 52.01 52.13 54.72 52.83 53.00 52.50 54.61 55.45 56.05 56.05 57.26
54.18 54.41 53.65 53.22 53.64 53.33 53.69 54.05 54.08 53.56 53.33 52.88 52.89 54.00 55.32 49.84 48.69 59.02 63.40 61.67 58.16 55.37 52.42 51.19 48.91 47.78 45.67 46.98 47.71 46.63 48.53 49.13 50.53 50.69 51.18 51.99 50.75 50.34 51.93 53.54 52.89 53.59 54.75 55.43 56.40
53.60 53.06 52.81 52.77 52.87 53.09 53.08 53.72 53.14 52.93 52.67 52.36 53.35 53.67 53.42 43.93 54.79 58.98 60.40 58.14 55.32 54.01 51.96 52.00 49.82 50.16 47.39 46.82 46.47 47.52 47.75 48.09 49.27 49.37 49.98 48.26 48.63 49.53 50.97 52.65 51.96 52.66 53.48 54.67 56.01
53.33 53.00 52.76 52.59 52.82 52.84 53.06 53.41 53.08 52.59 52.69 53.02 53.43 55.04 50.47 46.76 55.44 57.50 59.34 56.45 55.27 53.45 50.44 52.14 51.93 49.33 49.09 46.10 48.40 47.32 44.50 46.61 47.22 47.91 47.45 48.68 45.78 47.01 51.21 51.76 51.28 51.32 53.75 54.40 55.08
53.08 52.48 52.44 52.19 52.39 52.64 52.87 52.75 52.62 53.01 53.08 53.18 53.85 54.95 47.56 52.27 56.40 56.33 57.39 55.35 55.61 55.00 53.15 52.85 52.79 50.11 48.69 49.48 47.05 45.04 44.84 41.82 45.71 46.05 46.83 46.30 42.20 47.02 49.95 49.71 49.92 50.35 50.73 53.28 54.74
51.67 52.41 52.14 52.23 52.31 52.48 52.43 52.62 54.02 54.53 53.79 54.58 54.98 52.98 47.93 57.11 53.78 54.78 56.12 50.59 51.50 52.40 52.85 51.88 51.38 48.88 48.28 45.22 43.47 44.08 40.28 41.20 43.02 46.89 46.03 45.92 43.67 47.91 49.75 49.78 49.26 49.98 50.59 51.55 53.16
52.21 52.19 51.94 52.06 52.06 51.96 51.94 52.85 55.55 55.88 55.62 56.39 55.43 50.19 52.24 49.22 53.50 54.30 54.65 52.24 49.58 49.46 48.91 48.99 48.64 46.19 46.14 43.73 38.31 40.38 40.30 41.19 41.50 45.23 45.68 44.78 44.90 47.78 49.38 49.34 49.11 49.31 50.72 50.83 51.28
51.58 51.73 52.02 51.90 51.98 51.66 53.10 55.47 52.64 51.39 53.30 49.43 48.99 48.57 49.78 53.05 54.74 51.57 52.10 50.59 49.94 48.27 43.90 46.78 43.83 41.67 43.55 43.65 42.95 41.84 40.83 40.34 42.69 45.16 43.89 43.93 44.59 46.45 48.61 48.98 49.04 49.68 50.45 50.99 51.24
51.62 51.71 51.67 52.04 51.79 52.11 54.83 52.63 51.08 52.26 47.43 51.21 50.35 50.41 51.84 52.60 47.88 50.11 52.91 47.41 46.56 43.33 44.24 43.22 40.83 44.16 44.25 43.30 41.94 41.64 40.58 40.87 42.87 44.19 43.49 43.14 42.95 46.01 47.35 47.93 48.80 49.91 50.15 50.99 51.47
51.13 51.33 51.78 52.02 52.19 53.31 54.64 52.08 55.57 54.06 48.20 47.69 49.46 48.61 49.85 51.43 47.22 47.47 50.50 48.38 45.11 43.02 42.91 41.27 42.44 43.71 42.72 41.73 40.57 41.54 40.30 40.15 39.50 42.32 44.18 42.88 41.94 43.97 45.94 47.13 48.60 49.48 51.02 51.57 51.47
50.72 51.33 51.68 51.54 51.49 56.06 53.79 55.16 55.91 54.76 44.80 43.56 46.10 48.59 50.13 50.35 46.00 50.66 51.18 48.16 45.38 42.48 42.75 42.46 44.33 42.20 41.69 40.38 41.40 38.79 42.34 40.81 40.08 39.65 36.92 42.61 35.30 42.49 44.94 45.04 46.77 47.99 49.48 50.37 51.38
50.39 51.22 51.60 50.13 56.23 54.25 53.82 56.60 56.16 53.43 34.33 44.72 45.54 52.41 49.97 46.94 46.57 46.97 50.85 48.49 43.53 43.70 43.27 41.16 41.82 41.62 40.80 41.53 42.72 40.19 42.34 41.54 41.43 40.10 39.92 40.03 37.16 42.21 43.86 42.67 44.80 46.51 47.96 49.49 51.07
50.43 51.38 51.07 54.52 57.33 55.03 56.56 56.23 55.00 43.57 33.20 41.30 45.76 44.76 45.13 46.29 46.06 47.85 48.05 49.11 47.58 44.22 44.49 43.25 46.67 44.16 43.58 43.76 43.77 43.90 42.15 42.54 42.56 40.60 34.39 39.28 38.01 39.57 42.33 43.63 44.85 47.08 48.27 49.08 50.83
50.31 50.62 52.32 55.21 53.43 57.83 57.01 54.09 43.18 37.21 44.44 41.20 41.95 43.89 43.80 43.75 44.73 45.79 45.09 44.62 42.03 38.57 39.13 42.24 41.87 44.50 44.64 41.92 44.29 43.13 40.43 34.85 33.57 33.95 34.37 39.48 36.69 40.14 44.00 45.24 46.29 47.32 48.53 50.08 51.64
49.71 49.42 52.71 56.84 57.78 57.77 55.02 48.05 36.76 40.60 40.85 44.84 43.73 43.59 41.41 43.93 44.36 43.76 43.27 41.73 45.02 43.35 40.05 37.01 35.17 41.69 44.88 42.77 41.10 41.65 40.58 34.83 27.46 30.97 35.16 39.70 35.20 41.57 45.73 46.93 48.13 49.10 49.93 50.72 51.84
48.91 57.53 57.68 57.78 56.80 56.23 49.96 40.68 40.55 41.40 42.70 41.72 43.25 40.64 41.40 42.73 42.19 41.91 42.03 41.13 43.13 44.16 38.30 36.59 36.48 43.01 43.61 45.01 44.08 40.56 37.31 41.97 35.72 37.18 33.75 37.32 41.08 45.04 46.77 45.84 47.13 47.27 48.40 49.67 51.31
54.12 55.62 56.66 56.11 56.39 53.85 47.13 40.17 42.81 44.90 44.03 43.70 38.82 40.88 38.28 40.60 39.89 40.13 40.16 42.22 41.12 44.16 45.50 41.10 35.21 42.34 43.20 44.48 44.87 42.62 44.03 35.67 37.01 28.54 28.75 35.60 37.58 38.95 42.72 44.16 45.70 46.23 47.57 49.26 50.80
53.83 51.06 54.93 55.76 55.31 50.12 42.79 42.77 43.89 46.76 45.86 42.47 41.34 40.78 41.01 39.89 40.91 39.88 39.30 42.02 43.24 43.20 44.91 43.16 39.60 38.78 41.96 39.94 39.15 39.99 38.46 39.31 39.21 36.43 30.30 30.56 36.73 44.91 43.58 45.38 45.29 47.06 48.15 49.44 50.51
52.59 46.28 55.13 55.67 46.97 48.57 43.61 43.27 41.50 44.13 46.22 44.42 44.29 42.89 41.32 41.58 40.07 39.94 39.20 41.61 44.44 44.26 39.70 41.79 38.71 35.05 37.75 43.27 44.22 42.81 40.62 39.76 33.65 32.88 36.39 33.82 34.94 46.57 46.81 46.94 47.26 47.66 49.14 50.48 51.61
46.29 49.30 55.66 53.41 43.55 42.26 43.54 42.49 42.70 42.27 43.22 42.98 42.19 43.29 43.91 41.21 37.50 40.05 40.83 44.26 44.33 43.64 40.44 43.64 38.06 32.68 35.38 40.27 42.52 39.93 41.93 42.11 41.53 39.32 34.58 31.33 35.86 46.78 47.03 47.47 48.81 48.58 49.69 50.28 50.88
45.80 42.71 46.91 50.02 46.77 40.66 39.17 39.49 39.67 44.24 43.43 43.81 43.14 43.95 42.39 40.39 42.64 38.94 38.46 42.18 43.99 43.77 42.47 43.18 39.43 35.15 31.42 35.83 39.24 36.49 38.97 39.74 37.93 32.98 34.82 36.11 38.11 42.87 45.16 46.27 47.93 48.74 50.07 49.76 49.77
45.30 42.75 42.17 39.95 41.87 40.57 40.65 39.44 37.96 37.98 42.84 44.12 41.66 40.42 39.62 37.28 38.59 37.78 40.49 41.27 42.60 43.18 43.03 42.41 35.33 37.63 38.52 39.17 39.20 38.42 37.87 38.60 36.84 38.49 32.84 37.66 38.85 42.50 45.40 46.45 47.82 49.10 49.63 48.93 49.12
42.80 41.05 44.39 41.13 39.94 39.80 37.93 39.39 37.35 38.77 38.73 37.97 38.17 40.23 40.48 37.75 38.21 36.45 39.26 39.59 38.13 41.64 41.44 42.84 34.75 37.83 35.37 38.36 38.45 36.42 38.37 39.02 39.33 40.52 40.53 40.91 40.30 46.69 47.59 48.66 47.51 46.57 46.99 47.34 48.11
47.26 47.29 43.03 39.89 38.92 38.49 39.37 37.93 37.16 38.70 39.84 40.57 40.28 38.88 37.05 38.73 41.38 42.39 42.89 42.68 42.06 39.23 37.95 37.62 35.97 34.84 31.50 36.96 36.95 33.28 38.46 40.09 41.42 42.94 42.05 37.95 42.83 46.71 46.01 45.15 45.57 44.88 46.17 46.71 47.39
MSLP
1020.69 1020.22 1019.82 1019.46 1019.10 1018.79 1018.49 1018.21 1017.95 1017.69 1017.38 1017.03 1016.69 1016.36 1016.06 1015.61 1014.83 1013.43 1012.09 1011.68 1011.64 1011.94 1011.90 1010.84 1010.41 1009.77 1009.39 1008.21 1007.95 1007.45 1006.14 1004.31 1003.83 1003.88 1003.99 1004.50 1005.25 1005.29 1005.20 1005.02 1004.97 1004.77 1004.57 1004.63 1004.98
1020.62 1020.17 1019.70 1019.26 1018.87 1018.53 1018.24 1017.92 1017.62 1017.36 1017.11 1016.84 1016.62 1016.28 1015.88 1015.40 1014.02 1012.01 1011.40 1011.70 1011.92 1011.90 1010.95 1010.11 1009.48 1009.33 1008.44 1007.79 1007.58 1006.79 1005.30 1003.99 1003.79 1003.67 1003.80 1003.95 1004.66 1005.27 1005.69 1005.05 1004.80 1004.78 1004.30 1004.72 1004.73
1020.50 1020.05 1019.54 1019.05 1018.65 1018.28 1017.93 1017.63 1017.33 1017.05 1016.83 1016.61 1016.38 1016.03 1015.57 1015.01 1012.71 1010.29 1011.30 1011.77 1011.91 1011.71 1010.72 1010.24 1009.59 1008.90 1007.88 1007.34 1006.95 1006.35 1004.93 1004.29 1004.31 1004.61 1004.65 1004.30 1004.25 1004.54 1005.62 1005.05 1004.86 1004.54 1004.77 1004.89 1004.85
1020.33 1019.81 1019.32 1018.85 1018.47 1018.09 1017.71 1017.30 1016.97 1016.73 1016.54 1016.36 1016.15 1015.75 1015.22 1014.03 1010.95 1010.54 1011.44 1011.74 1011.80 1011.12 1010.52 1009.90 1009.30 1008.49 1007.57 1007.07 1006.56 1006.50 1005.79 1005.45 1005.42 1005.34 1005.87 1005.23 1004.95 1004.89 1005.10 1005.35 1005.59 1005.35 1005.11 1005.09 1004.72
1020.05 1019.56 1019.12 1018.64 1018.16 1017.77 1017.39 1017.02 1016.69 1016.47 1016.34 1016.21 1015.96 1015.60 1014.49 1012.48 1010.18 1010.77 1011.45 1011.67 1011.28 1010.89 1009.95 1009.36 1008.73 1008.24 1007.54 1007.17 1007.44 1006.97 1005.88 1006.54 1006.45 1006.34 1006.12 1006.02 1005.61 1005.59 1004.83 1005.27 1005.54 1005.41 1004.99 1004.89 1004.72
1019.79 1019.32 1018.86 1018.35 1017.81 1017.32 1016.98 1016.69 1016.39 1016.21 1016.12 1016.04 1015.80 1015.56 1013.85 1011.27 1010.36 1010.49 1010.62 1011.00 1010.58 1010.24 1009.70 1009.35 1008.85 1008.80 1008.13 1007.79 1007.63 1006.86 1006.66 1006.71 1006.65 1006.47 1006.09 1005.90 1005.40 1005.42 1004.74 1004.89 1005.15 1005.33 1004.86 1004.73 1004.45
1019.50 1019.04 1018.52 1018.00 1017.50 1017.04 1016.60 1016.25 1015.99 1015.83 1015.80 1015.75 1015.61 1014.79 1012.89 1010.35 1010.24 1010.57 1010.66 1010.33 1010.30 1010.13 1009.53 1009.61 1009.38 1009.00 1008.67 1008.10 1008.20 1007.85 1007.53 1006.73 1006.37 1006.31 1005.94 1005.95 1005.11 1004.49 1004.82 1004.94 1004.97 1005.00 1004.10 1004.34 1004.55
1019.14 1018.67 1018.12 1017.67 1017.19 1016.70 1016.22 1015.79 1015.38 1015.16 1015.29 1015.48 1015.43 1014.21 1011.12 1010.28 1010.37 1010.38 1010.17 1009.99 1010.17 1010.15 1010.06 1009.80 1009.62 1009.01 1008.63 1008.67 1008.38 1007.77 1007.33 1005.66 1005.15 1006.16 1006.12 1006.45 1004.12 1004.41 1005.34 1005.20 1004.33 1004.70 1004.35 1004.38 1004.41
1018.88 1018.28 1017.70 1017.21 1016.79 1016.34 1015.92 1015.42 1014.75 1014.52 1014.89 1015.10 1014.62 1013.37 1009.95 1010.32 1009.94 1009.60 1009.72 1009.43 1009.56 1009.77 1009.87 1009.98 1009.50 1008.76 1008.74 1008.00 1007.31 1007.05 1005.33 1005.40 1005.10 1006.36 1006.09 1005.87 1004.14 1004.04 1005.38 1005.39 1004.84 1004.90 1004.98 1004.97 1004.73
1018.52 1017.97 1017.36 1016.84 1016.42 1016.07 1015.62 1015.11 1014.82 1014.23 1014.55 1014.17 1013.48 1012.65 1010.00 1009.29 1009.47 1009.69 1009.59 1009.63 1009.32 1009.28 1009.36 1009.42 1008.85 1008.29 1007.84 1007.30 1005.85 1005.29 1005.80 1006.01 1005.57 1005.84 1006.08 1005.46 1004.84 1004.66 1004.92 1004.91 1004.73 1004.47 1004.48 1004.97 1004.73
1018.24 1017.60 1017.01 1016.49 1016.12 1015.88 1015.06 1014.39 1014.08 1013.33 1012.89 1011.51 1011.06 1010.46 1009.80 1009.59 1009.64 1009.21 1009.21 1009.17 1009.10 1008.92 1008.40 1008.61 1008.02 1007.11 1006.71 1007.42 1007.36 1007.05 1006.72 1006.17 1006.03 1006.29 1006.40 1005.37 1004.61 1004.27 1004.26 1004.27 1004.09 1003.79 1003.65 1003.72 1003.99
1018.00 1017.24 1016.53 1016.04 1015.69 1015.52 1014.95 1012.91 1013.30 1013.21 1011.45 1010.71 1010.63 1010.29 1009.97 1009.76 1009.02 1008.83 1009.15 1008.82 1008.62 1008.02 1008.48 1008.41 1007.44 1007.11 1007.80 1008.06 1007.95 1007.54 1006.90 1006.39 1006.49 1006.69 1006.61 1005.57 1004.53 1003.90 1003.38 1003.07 1003.10 1002.97 1002.86 1003.19 1003.48
1017.73 1016.96 1016.21 1015.63 1015.19 1014.91 1013.47 1013.32 1013.25 1012.99 1011.12 1009.97 1009.74 1009.33 1009.10 1009.41 1008.51 1008.19 1008.60 1008.28 1008.16 1007.93 1007.87 1007.28 1007.19 1007.92 1008.08 1007.90 1007.87 1007.39 1007.06 1006.77 1006.95 1006.75 1006.24 1005.26 1003.38 1002.46 1002.36 1002.64 1002.71 1002.89 1002.69 1002.99 1003.63
1017.49 1016.65 1015.88 1015.29 1015.22 1013.71 1012.93 1013.27 1012.95 1012.94 1010.28 1009.35 1008.78 1008.55 1008.95 1008.72 1008.26 1008.23 1008.28 1008.08 1007.92 1007.59 1007.65 1007.43 1007.63 1007.95 1007.76 1007.56 1007.69 1006.93 1007.10 1007.53 1007.32 1006.78 1005.12 1005.44 1002.97 1001.86 1001.89 1002.06 1002.52 1002.65 1002.63 1002.82 1003.26
1017.27 1016.55 1015.76 1015.21 1013.79 1012.88 1013.38 1013.05 1012.83 1012.67 1009.61 1008.96 1008.22 1008.12 1008.21 1008.13 1007.93 1008.02 1008.29 1008.10 1007.78 1007.40 1008.07 1006.76 1007.36 1007.50 1007.31 1007.11 1007.42 1007.22 1007.66 1007.56 1007.27 1006.60 1005.75 1004.59 1003.90 1000.86 1001.78 1001.64 1001.77 1002.41 1002.73 1002.89 1003.08
1016.97 1016.33 1015.78 1014.72 1013.73 1013.33 1013.08 1012.85 1012.59 1011.12 1008.84 1008.51 1008.16 1007.84 1007.79 1007.73 1007.68 1007.67 1007.89 1008.29 1008.10 1007.74 1007.44 1007.24 1007.13 1007.54 1007.17 1007.24 1007.48 1007.58 1007.61 1007.03 1006.57 1006.07 1004.59 1003.09 1003.12 1000.65 1000.61 1001.41 1001.70 1002.14 1002.35 1002.45 1002.69
1016.63 1016.02 1015.71 1014.20 1013.19 1013.24 1012.85 1011.95 1010.69 1009.33 1009.35 1008.54 1008.09 1008.21 1007.81 1007.42 1007.44 1007.63 1007.45 1007.51 1007.52 1007.23 1006.82 1006.73 1006.93 1007.23 1007.51 1007.25 1007.56 1007.61 1007.12 1005.64 1004.73 1004.32 1002.89 1003.78 1003.44 1001.57 1001.80 1002.22 1002.17 1002.04 1002.14 1002.31 1002.68
1016.15 1015.57 1014.96 1014.04 1013.57 1013.26 1012.31 1010.99 1009.66 1008.97 1008.79 1008.99 1008.79 1008.31 1007.91 1007.49 1007.44 1007.71 1007.73 1007.32 1007.41 1007.64 1007.08 1006.39 1006.08 1006.75 1007.02 1006.84 1006.44 1006.35 1006.86 1006.09 1004.88 1003.81 1002.87 1003.22 1001.91 1000.97 1002.09 1002.77 1002.72 1002.61 1002.59 1002.79 1002.72
1015.84 1014.40 1013.48 1013.43 1013.56 1013.12 1011.68 1010.06 1008.99 1009.26 1009.55 1009.25 1008.83 1008.20 1007.56 1008.01 1008.44 1007.97 1007.55 1007.40 1007.30 1007.51 1007.55 1006.79 1006.58 1007.24 1007.32 1007.07 1007.28 1006.57 1007.22 1006.94 1006.66 1006.00 1004.76 1002.90 1001.63 1001.23 1001.37 1002.36 1002.23 1002.25 1002.41 1002.38 1002.45
1015.32 1013.60 1012.73 1013.37 1013.37 1012.67 1011.13 1009.98 1009.75 1010.05 1010.10 1009.77 1008.99 1008.44 1007.84 1007.68 1008.19 1007.89 1007.73 1007.86 1007.99 1008.41 1008.58 1007.78 1007.56 1007.14 1007.12 1007.78 1007.39 1007.21 1006.96 1007.26 1007.09 1005.80 1003.75 1001.84 1000.87 1000.18 1000.99 1001.18 1002.05 1002.16 1002.25 1002.21 1002.47
1015.14 1012.98 1013.09 1013.31 1013.08 1011.68 1010.65 1009.97 1010.36 1010.29 1010.56 1010.16 1009.38 1008.86 1008.57 1008.36 1008.27 1008.17 1008.00 1008.36 1008.63 1008.42 1008.98 1008.62 1008.48 1007.51 1007.58 1007.19 1006.61 1006.81 1007.02 1007.34 1007.09 1006.76 1005.39 1002.96 1000.74 1000.84 1001.37 1001.65 1002.06 1002.51 1002.64 1002.97 1003.10
1014.78 1012.45 1013.00 1012.80 1011.82 1011.50 1010.80 1011.23 1011.65 1010.73 1010.53 1010.44 1010.12 1009.61 1009.24 1008.98 1008.64 1008.43 1008.32 1008.47 1009.35 1009.32 1009.17 1009.65 1009.36 1007.82 1006.63 1006.30 1006.56 1006.71 1006.31 1006.72 1007.29 1006.62 1005.72 1004.85 1000.99 1001.36 1001.27 1001.76 1002.20 1002.62 1002.69 1002.82 1002.95
1014.80 1013.44 1012.99 1012.63 1011.57 1011.32 1011.48 1011.57 1011.69 1011.11 1010.66 1010.29 1010.11 1010.10 1010.00 1009.84 1009.50 1008.84 1008.95 1009.46 1009.89 1009.80 1009.79 1010.26 1009.46 1008.15 1006.45 1006.60 1007.08 1006.62 1006.54 1006.71 1006.71 1007.07 1006.28 1005.11 1001.28 1001.66 1001.61 1001.52 1001.54 1001.91 1002.27 1002.51 1002.72
1015.43 1013.34 1012.68 1012.79 1013.29 1013.00 1012.42 1011.76 1011.64 1011.65 1011.32 1011.26 1010.72 1010.69 1010.52 1010.22 1009.98 1009.56 1009.61 1010.00 1010.49 1010.46 1011.06 1011.16 1010.14 1009.34 1007.70 1005.66 1006.98 1006.76 1006.69 1006.96 1007.49 1007.25 1005.93 1003.76 1001.79 1001.73 1001.23 1000.97 1000.92 1001.32 1001.72 1002.23 1002.68
1016.24 1015.31 1015.62 1013.11 1012.89 1013.61 1013.55 1012.76 1012.30 1012.02 1011.91 1011.64 1010.96 1011.37 1011.34 1010.73 1010.00 1009.76 1009.81 1009.98 1010.38 1010.85 1011.15 1011.02 1010.17 1009.45 1008.37 1007.53 1007.02 1006.52 1006.40 1006.27 1005.94 1005.60 1005.43 1002.79 1002.13 1001.10 1001.08 1000.66 1000.66 1000.94 1001.32 1001.79 1001.84
1017.10 1016.64 1015.88 1014.76 1014.49 1014.01 1013.63 1012.76 1012.96 1012.91 1013.18 1011.98 1011.86 1011.63 1011.81 1011.44 1011.10 1010.66 1010.38 1010.44 1010.40 1010.55 1010.85 1011.04 1010.53 1009.69 1008.42 1007.71 1007.05 1006.13 1005.68 1005.22 1004.74 1004.03 1003.27 1002.21 1000.62 1000.84 1000.23 1000.09 1000.72 1001.39 1001.86 1001.70 1001.48
1018.30 1018.11 1017.34 1014.95 1014.15 1013.95 1013.37 1013.59 1013.60 1013.86 1013.10 1012.99 1012.85 1012.53 1012.09 1011.72 1011.50 1011.25 1011.29 1011.22 1011.01 1011.10 1011.36 1011.50 1011.07 1010.26 1008.60 1007.54 1006.54 1005.17 1003.87 1003.51 1003.03 1002.65 1002.09 1001.16 1000.56 1000.52 1000.26 1000.66 1001.21 1001.75 1001.93 1001.54 1001.32
Wind_Speed
15 15 15 15 15 15 16 15 14 14 14 14 14 14 14 16 19 12 9 4 2 4 5 5 7 8 9 12 11 12 13 17 23 21 15 8 12 9 4 7 10 7 8 11 11
16 16 15 15 15 15 16 16 15 14 14 13 13 13 13 14 15 9 6 6 5 3 6 7 9 10 11 13 9 14 16 25 20 18 13 15 17 9 7 14 15 13 13 8 13
18 18 17 16 16 16 16 16 15 14 14 13 13 13 13 16 10 4 9 8 8 8 1 2 4 10 13 11 14 13 21 18 13 12 17 17 18 9 11 16 18 16 11 16 18
18 18 18 18 17 16 16 16 15 14 13 13 12 13 14 9 2 7 8 8 7 6 5 3 6 10 12 12 13 12 14 18 11 11 9 16 16 12 14 16 13 13 11 15 15
18 18 18 19 18 18 17 16 15 13 12 11 11 11 10 7 3 9 9 9 7 5 4 2 5 4 11 10 7 16 11 9 14 13 15 14 16 17 18 10 12 17 11 11 13
18 18 19 19 19 19 18 16 15 13 10 9 8 9 7 9 4 2 8 7 5 6 2 3 0 3 3 6 11 1 11 12 13 15 14 16 18 16 17 7 9 13 12 14 14
18 19 20 20 20 19 18 15 13 13 10 7 5 7 8 5 2 3 6 6 4 5 3 0 2 7 1 5 2 7 12 16 16 17 15 10 18 23 16 10 17 18 12 10 8
19 19 20 20 19 19 18 17 17 14 10 7 5 6 6 3 2 7 6 8 6 5 5 4 5 6 7 1 7 11 8 13 9 7 9 9 15 4 3 5 4 7 8 9 8
21 19 20 19 18 18 18 17 12 3 7 9 8 6 2 6 8 3 7 3 4 5 5 3 7 6 6 11 9 9 11 8 6 6 2 10 10 6 5 8 8 7 6 8 7
21 20 19 18 17 15 16 11 9 14 9 7 4 7 5 5 2 1 4 5 5 4 5 9 8 9 9 9 10 7 9 8 9 7 9 12 14 12 13 13 12 12 11 9 9
23 22 19 17 14 12 12 5 7 8 8 8 2 4 2 1 3 6 4 6 7 8 10 8 10 11 7 2 6 5 7 9 5 5 10 13 15 16 16 17 17 15 14 14 10
24 22 19 15 11 11 7 3 7 7 6 5 7 9 6 3 5 10 6 8 7 7 4 8 13 5 2 5 7 8 10 11 7 6 10 14 18 20 19 18 19 18 17 16 13
23 21 18 14 10 5 3 6 8 3 7 3 2 4 5 8 4 5 11 8 9 8 7 10 7 4 8 8 10 10 10 8 9 11 16 13 22 13 8 8 11 12 13 10 11
24 20 16 13 6 1 2 7 8 4 7 6 5 6 8 4 5 2 7 7 7 9 4 9 6 7 8 8 8 12 5 7 9 11 10 3 7 7 11 7 8 7 8 8 9
24 20 13 7 2 2 7 9 4 5 6 5 6 6 3 9 4 7 2 7 14 10 8 4 10 11 10 10 5 11 2 9 11 13 16 15 9 4 2 9 6 3 3 6 6
24 19 6 4 2 6 8 5 5 8 2 5 3 4 9 8 6 1 5 6 4 12 14 18 11 9 13 6 8 2 11 14 16 10 13 10 8 7 6 7 6 5 6 5 7
23 15 7 3 5 8 7 5 7 7 4 4 5 5 7 8 8 7 9 11 10 11 15 18 16 14 10 13 8 11 11 9 9 11 7 5 8 10 2 4 8 12 10 8 4
22 6 5 3 6 7 5 6 7 2 3 2 6 8 12 7 12 7 11 13 12 13 14 14 13 15 12 15 13 9 9 9 9 8 7 5 8 4 6 4 8 11 10 8 7
22 4 4 3 5 5 7 7 4 1 3 5 9 13 13 8 7 6 12 13 12 8 15 9 15 4 5 7 9 7 10 6 12 16 15 12 14 12 15 7 6 5 3 7 8
6 5 2 8 3 6 6 5 4 3 4 5 10 6 10 8 8 6 7 2 4 6 6 8 12 11 8 6 12 14 10 7 9 9 14 10 12 10 14 2 4 4 6 6 6
5 5 6 7 4 6 6 4 5 4 5 7 9 13 14 13 12 14 6 4 6 7 6 11 11 13 8 14 16 8 12 11 10 7 7 10 5 7 4 6 5 8 5 8 12
4 4 4 4 6 2 5 3 4 9 6 10 8 13 15 14 13 14 11 8 1 6 10 3 7 11 14 8 7 13 15 14 8 10 11 12 21 9 8 6 6 10 15 16 15
6 4 2 4 3 4 4 8 5 9 8 5 7 5 6 11 8 8 9 5 3 9 4 1 6 8 12 10 9 11 14 12 13 10 15 13 15 3 8 14 17 18 16 14 11
5 4 3 2 3 5 6 4 4 3 10 7 11 8 11 13 11 9 5 3 4 6 2 5 12 14 14 14 6 5 8 11 10 8 15 22 30 23 23 24 20 16 16 14 14
4 4 4 5 2 7 3 5 8 5 2 6 6 2 8 13 13 13 13 11 9 9 11 10 18 19 20 20 20 19 19 21 23 24 22 27 29 27 25 25 22 19 17 19 19
6 5 2 6 5 6 0 1 6 6 4 8 11 13 8 14 14 18 17 17 16 11 12 7 7 14 18 17 18 21 22 24 26 27 28 30 31 25 25 17 15 16 20 22 24
1 1 6 2 2 5 3 4 6 8 7 6 10 11 15 16 14 15 14 16 14 11 10 9 5 6 12 13 12 13 22 23 24 23 20 22 22 21 22 20 18 17 21 25 25
Wind_Direction
344 344 340 336 332 330 326 323 320 318 314 316 318 319 319 316 303 258 258 58 227 184 266 243 219 204 212 224 227 226 237 240 236 235 247 228 222 206 214 249 277 286 295 323 331
341 338 335 333 331 329 325 321 319 316 313 313 315 316 316 315 292 256 101 145 195 212 238 228 205 197 208 213 205 218 227 241 247 246 245 236 212 212 257 243 256 272 281 288 315
339 336 333 331 330 328 323 320 318 315 311 312 315 313 314 305 263 99 134 170 200 240 320 257 228 221 228 218 207 222 245 244 251 279 270 267 251 239 238 253 257 280 306 306 308
336 334 333 332 330 328 324 320 317 315 312 310 313 312 311 275 304 84 142 169 188 252 233 186 208 209 222 212 212 249 237 262 242 231 261 260 265 257 247 247 301 290 295 302 300
334 333 335 330 327 325 322 318 315 314 311 307 307 315 286 230 239 112 152 165 198 236 258 229 225 227 223 227 211 238 232 232 247 252 244 262 258 261 264 262 281 278 266 283 293
334 335 329 326 323 322 320 316 312 307 301 299 299 300 260 249 87 98 170 178 236 247 202 237 283 314 257 237 231 240 259 243 245 253 250 252 263 256 256 223 249 261 267 287 290
333 332 329 325 322 320 318 315 308 298 288 276 276 267 256 273 135 117 187 223 230 258 241 199 288 246 162 201 213 245 251 236 238 246 247 267 261 248 262 280 256 261 263 272 287
331 331 328 326 322 320 319 317 305 285 254 237 232 249 270 128 265 243 201 221 220 231 275 279 251 282 255 74 209 237 242 240 172 224 204 223 259 120 165 276 247 307 315 267 248
331 326 327 325 323 321 322 318 311 268 180 182 208 250 157 138 212 148 220 224 165 200 221 243 235 271 201 231 218 199 258 222 159 200 224 230 254 164 229 275 281 266 266 276 256
328 329 326 324 323 323 318 308 110 138 156 196 261 235 217 152 125 302 179 242 239 187 176 210 224 234 218 229 255 207 233 206 256 167 247 250 248 248 254 263 267 269 266 252 265
332 329 326 324 324 322 302 206 208 179 207 289 7 315 168 312 216 191 190 197 211 233 240 199 243 222 227 300 327 271 260 262 247 290 279 272 274 270 260 256 254 251 259 266 263
333 330 327 324 322 319 261 323 35 340 294 219 259 258 260 290 220 205 215 227 208 241 202 215 233 263 216 230 246 247 256 257 280 271 288 276 279 277 263 256 251 251 246 251 259
333 331 327 319 312 248 3 44 332 275 260 134 209 218 190 207 221 219 210 226 240 237 222 282 82 157 206 209 233 235 269 288 286 313 274 279 269 245 223 237 243 245 255 246 251
334 331 328 313 268 55 108 347 324 239 263 128 169 147 183 230 231 214 227 232 218 264 206 252 123 214 217 244 246 267 185 270 278 285 288 347 291 258 231 237 205 240 254 254 256
336 331 325 299 12 256 350 327 311 230 265 125 128 100 156 229 14 150 168 228 256 232 236 225 197 213 247 268 268 272 287 269 285 278 284 257 240 250 159 221 234 173 258 264 251
336 331 296 215 229 14 319 301 227 230 253 162 178 215 213 212 223 234 219 219 293 268 240 263 280 276 271 291 250 291 257 262 255 259 247 232 250 266 182 223 169 284 287 285 286
334 329 259 297 357 334 307 222 233 260 96 175 223 236 265 248 240 244 249 232 248 241 237 235 232 232 250 237 204 234 255 269 235 201 253 115 266 253 177 231 289 305 305 298 331
328 307 183 317 318 308 261 231 253 61 242 70 273 262 259 259 239 252 260 257 213 262 263 269 245 206 198 232 273 217 277 286 288 274 297 232 251 98 99 314 277 284 275 272 252
315 193 220 19 313 279 254 241 300 307 353 289 287 259 258 227 269 230 262 274 288 255 257 284 255 126 254 227 233 218 232 299 287 271 266 257 260 238 214 213 257 286 292 236 258
296 250 154 338 276 254 251 277 275 232 297 257 278 269 274 248 233 239 280 118 249 236 260 282 277 221 239 236 234 251 296 225 212 266 256 248 266 271 177 258 302 303 295 298 298
255 248 72 342 242 234 257 312 289 266 283 271 275 272 279 277 274 275 267 255 249 254 250 283 263 272 207 239 254 184 224 226 290 243 258 283 272 62 314 297 283 305 304 314 295
301 254 43 311 252 223 275 354 5 273 252 268 274 271 275 280 280 271 272 255 75 264 247 269 293 278 271 260 281 272 274 217 226 238 245 277 272 341 305 286 312 277 297 302 300
332 310 81 293 308 320 327 281 265 281 274 263 271 264 317 288 288 268 282 26 282 252 300 320 241 264 239 183 206 234 226 246 246 271 258 265 263 179 231 268 293 302 291 298 298
301 298 142 61 34 324 339 294 284 286 282 292 280 286 275 269 256 269 263 228 235 263 60 295 264 258 269 305 215 253 242 219 235 252 257 251 273 271 283 287 296 289 286 300 297
6 38 355 315 58 331 291 303 303 306 267 283 261 247 308 288 281 277 266 269 242 243 244 249 259 260 261 270 274 277 271 267 258 245 240 268 269 279 283 292 298 293 290 290 287
332 332 195 293 296 288 108 296 315 329 286 298 283 304 296 279 287 283 294 289 283 279 255 233 257 266 264 264 263 263 262 257 256 259 264 269 273 278 279 294 306 302 304 297 297
38 170 278 123 245 283 3 347 321 311 278 269 295 299 290 291 298 297 290 283 272 265 264 286 268 277 269 272 297 266 250 246 250 253 265 277 285 300 295 300 299 303 300 294 293